Location: Newark
(44.3248°N, 23.7839°E)
Time: 18:29:46
(UTC+00:00)

STARS - Pass Details

Date: 28 April 2024
Orbit: 604 x 620 km, 98.1° (Epoch: 28 May)

Event Time Altitude Azimuth Distance (km) Brightness Sun altitude
Rises 22:43:02 0° 11° (N) 2,893 ? -30.9°
Reaches altitude 10° 22:45:14 10° 9° (N) 1,980 ? -30.9°
Enters shadow 22:47:42 34° 2° (N) 1,023 ? -30.8°
